EW7396 Weather Reports


time (UTC)temp
F
wind
direction
speed
knots
gust
knots
rain 1hr
in
rain 24hr
in
rain mn
in
humidity
%
barometer
mb
20260507104523 52 0.0 0.0 0.00 0.09 0.00 76 1015.8
20260507103019 51 0.0 0.0 0.00 0.09 0.00 77 1015.8
20260507101515 51 0.0 0.0 0.00 0.09 0.00 78 1015.7
20260507100010 51 0.0 0.0 0.00 0.09 0.00 79 1015.5
20260507094505 51 0.0 0.0 0.00 0.15 0.00 81 1015.5
20260507093001 50 0.0 0.0 0.00 0.15 0.00 83 1015.4
20260507091557 50 0.0 0.0 0.00 0.15 0.00 85 1015.3
20260507090052 49 0.0 0.0 0.00 0.15 0.00 87 1015.2
20260507084549 49 0.0 0.0 0.00 0.21 0.00 87 1015.0
20260507083044 48 0.0 0.0 0.00 0.21 0.00 88 1014.8
20260507081541 48 0.0 0.0 0.00 0.21 0.00 88 1014.7
20260507080035 47 0.0 0.0 0.00 0.21 0.00 89 1014.5
20260507074531 47 0.0 0.0 0.00 0.27 0.00 89 1014.4
20260507073026 47 0.0 0.0 0.00 0.27 0.00 89 1014.3
20260507071524 47 0.0 0.0 0.00 0.27 0.00 89 1014.3
20260507070027 47 0.0 0.0 0.00 0.27 0.00 89 1014.2
20260507064515 47 0.0 0.0 0.00 0.31 0.00 89 1014.1
20260507063009 47 0.0 0.0 0.00 0.31 0.00 89 1013.9
20260507061504 47 0.0 0.0 0.00 0.31 0.00 89 1013.6
20260507060100 47 0.0 0.0 0.00 0.31 0.00 89 1013.4
20260507054556 47 0.0 0.0 0.00 0.34 0.00 88 1013.2
20260507053053 47 0.0 0.0 0.00 0.34 0.00 88 1013.0
20260507051547 47 0.0 0.0 0.00 0.34 0.00 88 1012.9
20260507050042 47 0.0 0.0 0.00 0.34 0.00 88 1012.8
20260507044549 47 0.0 0.0 0.00 0.38 0.00 88 1012.7
20260507043033 46 0.0 0.0 0.00 0.38 0.00 87 1012.5
20260507041529 46 0.0 0.0 0.00 0.38 0.00 87 1012.4
20260507040025 46 0.0 0.0 0.00 0.38 0.00 88 1012.3
20260507034522 46 0.0 0.0 0.00 0.39 0.00 88 1012.2
20260507033019 46 0.0 0.0 0.00 0.39 0.00 88 1012.3
20260507031511 46 0.0 0.0 0.00 0.39 0.00 88 1012.1
20260507030008 46 0.0 0.0 0.00 0.39 0.00 88 1012.0
20260507024506 46 0.0 0.0 0.00 0.39 0.00 88 1011.8
20260507023102 46 0.0 0.0 0.00 0.39 0.00 88 1011.8
20260507021558 46 0.0 0.0 0.00 0.39 0.00 88 1011.8
20260507020059 46 0.0 0.0 0.00 0.39 0.00 88 1011.6
20260507014555 46 0.0 0.0 0.00 0.39 0.00 88 1011.5
20260507013043 46 0.0 0.0 0.00 0.39 0.00 88 1011.4
20260507011546 46 0.0 0.0 0.00 0.39 0.00 88 1011.4
20260507010041 46 0.0 0.0 0.00 0.39 0.00 89 1011.4
20260507004532 46 0.0 0.0 0.00 0.39 0.00 89 1011.2
20260507003026 46 0.0 0.0 0.00 0.39 0.00 89 1011.1
20260507001526 47 0.0 0.0 0.00 0.39 0.00 89 1011.0
20260507000018 47 0.0 0.0 0.00 0.39 0.00 89 1010.9
20260506234512 47 0.0 0.0 0.00 0.39 0.00 89 1010.8
20260506233008 47 0.0 0.0 0.00 0.39 0.00 89 1010.7
20260506231504 47 0.0 0.0 0.00 0.39 0.00 89 1010.8
20260506230107 47 0.0 0.0 0.00 0.39 0.00 89 1010.7
20260506224600 47 0.0 0.0 0.00 0.39 0.00 89 1010.7
20260506223051 47 0.0 0.0 0.00 0.39 0.00 89 1010.5
20260506221547 48 0.0 0.0 0.00 0.39 0.00 90 1010.3
20260506220043 48 0.0 0.0 0.00 0.39 0.00 90 1010.3
20260506214540 49 0.0 0.0 0.00 0.39 0.39 89 1010.2
20260506213037 49 0.0 0.0 0.01 0.39 0.39 90 1010.2
20260506211529 49 0.0 0.0 0.01 0.39 0.39 90 1010.1
20260506210031 49 0.0 0.0 0.01 0.39 0.39 89 1010.0
20260506204521 49 0.0 0.0 0.01 0.39 0.39 90 1009.9
20260506203016 50 0.0 0.0 0.00 0.38 0.38 90 1010.0
20260506201512 50 0.0 0.0 0.00 0.38 0.38 89 1009.9
20260506200007 50 0.0 0.0 0.00 0.38 0.38 89 1009.6
20260506194505 50 0.0 0.0 0.00 0.38 0.38 89 1009.6
20260506193058 50 0.0 0.0 0.00 0.38 0.38 89 1009.3
20260506191555 50 0.0 0.0 0.00 0.38 0.38 89 1009.3
20260506190054 50 0.0 0.0 0.00 0.38 0.38 89 1009.1
20260506184550 50 0.0 0.0 0.00 0.38 0.38 89 1008.9
20260506183040 50 0.0 0.0 0.00 0.38 0.38 89 1008.9
20260506181537 50 0.0 0.0 0.00 0.38 0.38 89 1008.7
20260506180032 51 0.0 0.0 0.00 0.38 0.38 89 1008.7
20260506174529 51 0.0 0.0 0.00 0.38 0.38 89 1008.7
20260506173030 51 0.0 0.0 0.00 0.38 0.38 89 1008.6
20260506171520 52 0.0 0.0 0.00 0.38 0.38 89 1008.5
20260506170016 52 0.0 0.0 0.00 0.38 0.38 89 1008.4
20260506164510 52 0.0 0.0 0.00 0.38 0.38 89 1008.3
20260506163006 52 0.0 0.0 0.01 0.38 0.38 89 1008.4
20260506161501 53 0.0 0.0 0.01 0.38 0.38 89 1008.2
20260506160108 53 0.0 0.0 0.01 0.38 0.38 89 1008.2
20260506154555 53 0.0 0.0 0.02 0.38 0.38 89 1008.2
20260506153056 53 0.0 0.0 0.02 0.37 0.37 89 1008.1
20260506151548 54 0.0 0.0 0.02 0.37 0.37 89 1008.3
20260506150043 53 0.0 0.0 0.02 0.37 0.37 89 1008.1
20260506144540 54 0.0 0.0 0.01 0.36 0.36 89 1008.2
20260506143036 54 0.0 0.0 0.00 0.35 0.35 89 1008.2
20260506141530 53 0.0 0.0 0.00 0.35 0.35 89 1008.1
20260506140023 53 0.0 0.0 0.01 0.35 0.35 89 1008.1
20260506134518 53 0.0 0.0 0.02 0.35 0.35 89 1008.0
20260506133015 53 0.0 0.0 0.02 0.35 0.35 88 1008.1
20260506131511 53 0.0 0.0 0.02 0.35 0.35 88 1007.9
20260506130005 53 0.0 0.0 0.02 0.35 0.35 88 1008.1
20260506124603 53 0.0 0.0 0.02 0.34 0.34 88 1008.1
20260506123056 53 0.0 0.0 0.02 0.34 0.34 88 1008.1
20260506121552 52 0.0 0.0 0.03 0.34 0.34 88 1008.0
20260506120047 52 0.0 0.0 0.02 0.32 0.32 88 1007.9
20260506114543 52 0.0 0.0 0.02 0.32 0.32 88 1007.8
20260506113046 52 0.0 0.0 0.01 0.31 0.31 88 1007.8
20260506111534 51 0.0 0.0 0.01 0.31 0.31 88 1007.8
20260506110033 51 0.0 0.0 0.01 0.31 0.31 88 1007.7